Tulsa, OK

4:20 AM CDT on October 01, 2016 (GMT -0500)
Tulsa International

Weather History for KTUL - September, 2012

Change the Weather History Date:

Sunday, September 2, 2012

  Actual Average Record
Temperature  
Mean Temperature 87 °F 78 °F  
Max Temperature 103 °F 90 °F 109 °F (1939)
Min Temperature 70 °F 68 °F 51 °F (1974)
Degree Days  
Heating Degree Days 0 0  
Month to date heating degree days 0 0  
Since 1 July heating degree days 0 0  
Cooling Degree Days 22 14  
Month to date cooling degree days 45 28  
Year to date cooling degree days 2315 1729  
Growing Degree Days 37 (Base 50)    
Moisture  
Dew Point 66 °F    
Average Humidity 55    
Maximum Humidity 87    
Minimum Humidity 23    
Precipitation  
Precipitation 0.00 in 0.14 in 2.38 in (1934)
Month to date precipitation 0.00 0.27  
Year to date precipitation 22.25 27.75  
Sea Level Pressure  
Sea Level Pressure 29.86 in    
Wind  
Wind Speed 4 mph (SE)    
Max Wind Speed 12 mph    
Max Gust Speed 16 mph    
Visibility 10 miles    
Events      
T = Trace of Precipitation, MM = Missing Value Source: NWS Daily Summary

Daily Weather History Graph

Daily Weather History Graph

Search for Another Location

Airport or City:

Trip Planner

Search our weather history database for the weather conditions in past years. The results will help you decide how hot, cold, wet, or windy it might be!

Date:

Astronomy

Sep. 02, 2012 Rise Set
Actual Time 6:56 AM CDT 7:49 PM CDT
Civil Twilight 6:30 AM CDT 8:15 PM CDT
Nautical Twilight 5:59 AM CDT 8:46 PM CDT
Astronomical Twilight 5:27 AM CDT 9:18 PM CDT
Moon 8:43 PM CDT (9/2) 8:59 AM CDT (9/2)
Length of Visible Light 13h 45m
Length of Day
12h 52m
Waning Gibbous, 95% of the Moon is Illuminated
Sep 2
Waning Gibbous
Sep 8
Last Quarter
Sep 15
New
Sep 22
First Quarter
Sep 29
Full

Hourly Weather History & Observations

Time (CDT) Temp. Heat Index Dew Point Humidity Pressure Visibility Wind Dir Wind Speed Gust Speed Precip Events Conditions
12:53 AM 81.0 °F 83.0 °F 66.0 °F 60% 29.90 in 10.0 mi ENE 3.5 mph - N/A   Clear
1:53 AM 79.0 °F - 66.0 °F 64% 29.91 in 10.0 mi East 3.5 mph - N/A   Clear
2:53 AM 75.9 °F - 68.0 °F 76% 29.91 in 10.0 mi Calm Calm - N/A   Clear
3:53 AM 75.9 °F - 69.1 °F 79% 29.90 in 10.0 mi NE 6.9 mph - N/A   Clear
4:53 AM 73.0 °F - 69.1 °F 87% 29.90 in 10.0 mi Calm Calm - N/A   Clear
5:53 AM 73.0 °F - 69.1 °F 87% 29.90 in 10.0 mi ENE 5.8 mph - N/A   Clear
6:53 AM 73.0 °F - 69.1 °F 87% 29.91 in 10.0 mi Calm Calm - N/A   Clear
7:53 AM 73.0 °F - 70.0 °F 90% 29.92 in 10.0 mi Calm Calm - N/A   Clear
8:53 AM 78.1 °F - 70.0 °F 76% 29.92 in 10.0 mi East 3.5 mph - N/A   Clear
9:53 AM 82.9 °F 87.0 °F 70.0 °F 65% 29.92 in 10.0 mi East 4.6 mph - N/A   Clear
10:53 AM 86.0 °F 90.7 °F 70.0 °F 59% 29.92 in 10.0 mi Variable 4.6 mph - N/A   Clear
11:53 AM 89.1 °F 94.1 °F 70.0 °F 53% 29.91 in 10.0 mi South 4.6 mph - N/A   Clear
12:53 PM 93.9 °F 99.1 °F 69.1 °F 44% 29.88 in 10.0 mi Calm Calm - N/A   Clear
1:53 PM 96.1 °F 101.6 °F 69.1 °F 41% 29.86 in 10.0 mi SSE 5.8 mph - N/A   Clear
2:53 PM 100.0 °F 105.6 °F 68.0 °F 35% 29.83 in 10.0 mi ENE 4.6 mph - N/A   Partly Cloudy
3:53 PM 100.9 °F 106.7 °F 68.0 °F 34% 29.81 in 10.0 mi ESE 8.1 mph - N/A   Partly Cloudy
4:53 PM 102.9 °F 103.0 °F 57.9 °F 23% 29.79 in 10.0 mi SSW 10.4 mph - N/A   Partly Cloudy
5:53 PM 102.0 °F 102.7 °F 60.1 °F 25% 29.78 in 10.0 mi WSW 9.2 mph - N/A   Partly Cloudy
6:53 PM 102.0 °F 102.2 °F 59.0 °F 24% 29.78 in 10.0 mi SW 8.1 mph - N/A   Partly Cloudy
7:53 PM 95.0 °F 95.6 °F 62.1 °F 33% 29.79 in 10.0 mi South 5.8 mph - N/A   Partly Cloudy
8:53 PM 91.9 °F 91.8 °F 61.0 °F 35% 29.80 in 10.0 mi East 3.5 mph - N/A   Clear
9:53 PM 89.1 °F 89.3 °F 62.1 °F 40% 29.82 in 10.0 mi Calm Calm - N/A   Clear
10:53 PM 86.0 °F 88.2 °F 66.0 °F 51% 29.82 in 10.0 mi Calm Calm - N/A   Clear
11:53 PM 88.0 °F 89.6 °F 64.9 °F 46% 29.82 in 10.0 mi South 9.2 mph - N/A   Clear